Torna al catalogo

CZ-6A DEB

AttivoPO
NORAD 60668·DEBRIS·🇨🇳 China

Lanciato Aug 6, 2024 da Taiyuan Satellite Launch Center

Loading…

Prossimi Passaggi (prossime 24 ore)

TLE

AggiornatoSource: Space-Track

Epoca: Sep 14, 2026, 09:47 UTC

1 60668U 24140BV  26257.40818673  .00002226  00000-0  61116-3 0  9996
2 60668  88.9790 259.8598 0074155 287.5745  71.7368 14.45161615110463

Traccia CZ-6A DEB in tempo reale con AllMySat

Download on the App Store